Home   Weather   San Juan   Past weeks

Flag for Puerto Rico Past Weather in San Juan, Puerto Rico — Yesterday and Last 2 Weeks

88 °F

Scattered clouds.

Feels Like: 98 °F
Forecast: 79 / 87 °F
Wind: 12 mph from East

Location: Luis Munoz Marin

Current Time: Oct 27, 2016 at 4:38:36 PM

Latest Report: Oct 27, 2016 at 3:56 PM

Visibility: 10 mi

Pressure: 29.80 "Hg

Humidity: 66%

Dew Point: 75 °F

Location of San JuanLocation

Past Weather in San Juan — Graph


San Juan Temperature Yesterday

Maximum temperature yesterday: 86 °F (at 12:56 PM)
Minimum temperature yesterday: 77 °F (at 2:56 AM)
Average temperature yesterday: 82 °F

High & Low Weather Summary for the Past Weeks

High93 °F (Oct 20, 12:56 PM)96% (Oct 25, 1:56 AM)30.03 "Hg (Oct 25, 1:56 AM)
Low75 °F (Oct 19, 2:56 AM)15% (Oct 18, 7:56 PM)29.75 "Hg (Oct 17, 3:56 PM)
Average83 °F80%29.88 "Hg
* Reported Oct 12 2:56 PM — Oct 27 2:56 PM, San Juan, Weather by CustomWeather, © 2016

Note: Actual official high and low records may vary slightly from our data, if they occured in-between our weather recording intervals... More about our weather records


San Juan Weather History for the Previous 24 Hours

Scroll right to see more
Time TempWeatherWind HumidityBarometerVisibility
2:56 PM
Thu, Oct 27
88 °FScattered clouds.13 mph66%29.80 "Hg10 mi
1:56 PM87 °FPassing clouds.12 mph69%29.81 "Hg10 mi
12:56 PM86 °FScattered clouds.8 mph72%29.83 "Hg10 mi
11:56 AM88 °FPassing clouds.10 mph70%29.86 "Hg10 mi
10:56 AM87 °FScattered clouds.8 mph69%29.88 "Hg10 mi
9:56 AM85 °FScattered clouds.5 mph75%29.89 "Hg10 mi
8:56 AM84 °FScattered clouds.No wind77%29.87 "Hg10 mi
7:56 AM83 °FScattered clouds.No wind79%29.87 "Hg10 mi
6:56 AM80 °FPassing clouds.3 mph90%29.85 "Hg10 mi
5:56 AM79 °FPassing clouds.No wind94%29.82 "Hg10 mi
4:56 AM80 °FPassing clouds.No wind90%29.80 "Hg10 mi
3:56 AM79 °FPassing clouds.5 mph90%29.80 "Hg10 mi
2:56 AM79 °FPassing clouds.3 mph90%29.81 "Hg10 mi
1:56 AM80 °FPassing clouds.3 mph90%29.83 "Hg10 mi
12:56 AM81 °FPassing clouds.5 mph88%29.85 "Hg10 mi
11:56 PM
Wed, Oct 26
80 °FPassing clouds.3 mph90%29.86 "Hg10 mi
10:56 PM82 °FPassing clouds.No wind82%29.87 "Hg10 mi
9:56 PM83 °FPassing clouds.5 mph77%29.86 "Hg10 mi
8:56 PM83 °FPassing clouds.5 mph77%29.86 "Hg10 mi
7:56 PM84 °FPassing clouds.8 mph74%29.85 "Hg10 mi
6:56 PM84 °FPassing clouds.9 mph74%29.83 "Hg10 mi
5:56 PM84 °FScattered clouds.10 mph74%29.82 "Hg10 mi
4:56 PM85 °FScattered clouds.8 mph72%29.81 "Hg10 mi
Weather by CustomWeather, © 2016

See weather overviewHow to use our weather pages